Weather History for NZCH - October, 2013

Change the Weather History Date:

Saturday, October 5, 2013

  Actual Average Record
Temperature  
Mean Temperature 53 °F -  
Max Temperature 64 °F 58 °F 71 °F (2012)
Min Temperature 42 °F 40 °F 28 °F (2002)
Degree Days  
Heating Degree Days 12    
Growing Degree Days 3 (Base 50)    
Moisture  
Dew Point 51 °F    
Average Humidity 92    
Maximum Humidity 100    
Minimum Humidity 68    
Precipitation  
Precipitation 0.00 in - - ()
Sea Level Pressure  
Sea Level Pressure 29.86 in    
Wind  
Wind Speed 3 mph ()    
Max Wind Speed 13 mph    
Max Gust Speed -    
Visibility 5.2 miles    
Events Fog    
Averages and records for this station are not official NWS values.
T = Trace of Precipitation, MM = Missing Value Source: Averaged Metar Reports

Daily Weather History Graph

Daily Weather History Graph

Search for Another Location

Airport or City:

Trip Planner

Search our weather history database for the weather conditions in past years. The results will help you decide how hot, cold, wet, or windy it might be!

Date:

Astronomy

Oct. 05, 2013 Rise Set
Actual Time 6:56 AM NZDT 7:41 PM NZDT
Civil Twilight 6:27 AM NZDT 8:10 PM NZDT
Nautical Twilight 5:53 AM NZDT 8:44 PM NZDT
Astronomical Twilight 5:17 AM NZDT 9:20 PM NZDT
Moon 6:40 AM NZDT (10/5) 7:56 PM NZDT (10/5)
Length of Visible Light 13h 42m
Length of Day
12h 44m
Waning Crescent, 0% of the Moon is Illuminated
Oct 5
Waning Crescent
Oct 5
New
Oct 12
First Quarter
Oct 19
Full
Oct 27
Last Quarter

Hourly Weather History & Observations

Time (NZDT) Temp. Dew Point Humidity Pressure Visibility Wind Dir Wind Speed Gust Speed Precip Events Conditions
12:00 AM 46.4 °F 46.4 °F 100% 29.95 in 6.2 mi NW 2.3 mph - N/A   Unknown
12:30 AM 48.2 °F 46.4 °F 93% 29.95 in 6.2 mi North 2.3 mph - N/A   Unknown
1:00 AM 48.2 °F 46.4 °F 93% 29.95 in 6.2 mi North 1.2 mph - N/A   Unknown
1:30 AM 46.4 °F 44.6 °F 93% 29.95 in 6.2 mi North 2.3 mph - N/A   Unknown
2:00 AM 42.8 °F 42.8 °F 100% 29.95 in 1.6 mi North 2.3 mph - N/A Fog Patches of Fog
2:30 AM 48.2 °F 48.2 °F 100% 29.95 in 6.2 mi WNW 3.5 mph - N/A   Overcast
3:00 AM 48.2 °F 48.2 °F 100% 29.92 in 6.2 mi NW 2.3 mph - N/A   Overcast
3:30 AM 50.0 °F 50.0 °F 100% 29.92 in 6.2 mi NNW 2.3 mph - N/A   Overcast
4:00 AM 50.0 °F 50.0 °F 100% 29.92 in 6.2 mi North 2.3 mph - N/A   Overcast
4:30 AM 50.0 °F 50.0 °F 100% 29.92 in 6.2 mi North 1.2 mph - N/A   Overcast
5:00 AM 50.0 °F 50.0 °F 100% 29.92 in 6.2 mi Calm Calm - N/A   Overcast
5:30 AM 50.0 °F 50.0 °F 100% 29.92 in 6.2 mi Calm Calm - N/A   Overcast
6:00 AM 50.0 °F 50.0 °F 100% 29.89 in 6.2 mi Calm Calm - N/A   Overcast
6:30 AM 50.0 °F 50.0 °F 100% 29.89 in 6.2 mi Calm Calm - N/A   Overcast
7:00 AM 50.0 °F 48.2 °F 94% 29.89 in 6.2 mi Calm Calm - N/A   Overcast
7:30 AM 48.2 °F 48.2 °F 100% 29.89 in 5.0 mi Calm Calm - N/A   Scattered Clouds
8:00 AM 48.2 °F 48.2 °F 100% 29.92 in 6.2 mi Calm Calm - N/A   Scattered Clouds
8:30 AM 50.0 °F 48.2 °F 94% 29.92 in 6.2 mi Calm Calm - N/A   Overcast
9:00 AM 51.8 °F 50.0 °F 94% 29.92 in 6.2 mi Calm Calm - N/A   Overcast
9:30 AM 51.8 °F 50.0 °F 94% 29.92 in 6.2 mi Calm Calm - N/A   Overcast
10:00 AM 53.6 °F 50.0 °F 88% 29.92 in 6.2 mi WSW 4.6 mph - N/A   Overcast
10:30 AM 53.6 °F 50.0 °F 88% 29.92 in 6.2 mi SW 3.5 mph - N/A   Overcast
11:00 AM 55.4 °F 50.0 °F 82% 29.92 in 6.2 mi SW 4.6 mph - N/A   Overcast
11:30 AM 55.4 °F 50.0 °F 82% 29.89 in 6.2 mi WSW 3.5 mph - N/A   Overcast
12:00 PM 57.2 °F 51.8 °F 82% 29.89 in 6.2 mi West 1.2 mph - N/A   Mostly Cloudy
12:30 PM 59.0 °F 51.8 °F 77% 29.86 in 6.2 mi SSW 3.5 mph - N/A   Mostly Cloudy
1:00 PM 60.8 °F 53.6 °F 77% 29.86 in 6.2 mi South 4.6 mph - N/A   Partly Cloudy
1:30 PM 62.6 °F 53.6 °F 72% 29.83 in 6.2 mi SSW 3.5 mph - N/A   Unknown
2:00 PM 64.4 °F 53.6 °F 68% 29.83 in 6.2 mi East 2.3 mph - N/A   Unknown
2:30 PM 64.4 °F 55.4 °F 73% 29.83 in 6.2 mi ESE 2.3 mph - N/A   Unknown
3:00 PM 64.4 °F 55.4 °F 73% 29.83 in 6.2 mi ENE 8.1 mph - N/A   Unknown
3:30 PM 62.6 °F 55.4 °F 77% 29.80 in 6.2 mi East 10.4 mph - N/A   Unknown
4:00 PM 59.0 °F 53.6 °F 82% 29.80 in 6.2 mi ENE 11.5 mph - N/A   Unknown
4:30 PM 59.0 °F 53.6 °F 82% 29.80 in 6.2 mi ENE 9.2 mph - N/A   Unknown
5:00 PM 59.0 °F 53.6 °F 82% 29.80 in 6.2 mi ENE 9.2 mph - N/A   Unknown
5:30 PM 55.4 °F 51.8 °F 88% 29.80 in 6.2 mi East 9.2 mph - N/A   Scattered Clouds
6:00 PM 53.6 °F 51.8 °F 94% 29.80 in 6.2 mi ENE 9.2 mph - N/A   Mostly Cloudy
6:30 PM 53.6 °F 51.8 °F 94% 29.77 in 6.2 mi ENE 10.4 mph - N/A   Mostly Cloudy
7:00 PM 53.6 °F 51.8 °F 94% 29.77 in 6.2 mi ENE 11.5 mph - N/A   Mostly Cloudy
7:30 PM 51.8 °F 51.8 °F 100% 29.77 in 3.7 mi NE 12.7 mph - N/A   Overcast
8:00 PM 51.8 °F 51.8 °F 100% 29.77 in 3.1 mi ENE 11.5 mph - N/A   Overcast
8:30 PM 51.8 °F 51.8 °F 100% 29.77 in 3.1 mi NE 8.1 mph - N/A   Overcast
9:00 PM 51.8 °F 51.8 °F 100% 29.77 in 1.4 mi ENE 9.2 mph - N/A   Overcast
9:30 PM 51.8 °F 51.8 °F 100% 29.77 in 0.6 mi ENE 10.4 mph - N/A Fog Fog
10:00 PM 51.8 °F 51.8 °F 100% 29.77 in 0.3 mi ENE 10.4 mph - N/A Fog Fog
10:30 PM 51.8 °F 51.8 °F 100% 29.77 in 0.2 mi ENE 11.5 mph - N/A Fog Fog
11:00 PM 51.8 °F 51.8 °F 100% 29.74 in 0.2 mi ENE 10.4 mph - N/A Fog Fog
11:30 PM 51.8 °F 51.8 °F 100% 29.74 in 0.3 mi ENE 10.4 mph - N/A Fog Fog